User: anonymous   Login
Location: Haulchin
(50.3172°N, 3.4360°E)
Time: 18:26:40
(UTC+00:00)
Language:

Cosmos 1954 Rocket - Orbit

View from above orbital plane
View from above orbital plane
View from above satellite
View from above satellite

Ground track
Ground track

The orbit data is extracted from the following two-line orbital elements,

1 19257U 88053B   24201.91110955  .00000625  00000-0  21396-3 0  9995
2 19257  74.0480 133.8159 0019081 104.2943 319.0528 14.38228288890631
Epoch (UTC): 19 July 2024 21:51:59
Eccentricity: 0.0019081
inclination: 74.0480°
perigee height: 751 km
apogee height: 778 km
right ascension of ascending node: 133.8159°
argument of perigee: 104.2943°
revolutions per day: 14.38228288
mean anomaly at epoch: 319.0528°
orbit number at epoch: 89063

The dashed part of the orbit path shows where the satellite is in the earth's shadow,  

DLR